Regional Weather Roundup
Issued by NWS

Home | Current Version | Previous Version | Text Only | Print | Product List | Glossary Off
Versions: 1 2 3 4 5 6 7 8 9 10 11 12 13 14 15 16 17 18 19 20 21 22 23 24 25 26 27 28 29 30 31 32 33 34 35 36 37 38 39 40 41 42 43 44 45 46 47 48 49 50

000
ASUS43 KLMK 080610
RWRKY
KENTUCKY REGIONAL WEATHER ROUNDUP
NATIONAL WEATHER SERVICE LOUISVILLE KY
100 AM EST THU DEC 08 2016

NOTE "FAIR" INDICATES FEW OR NO CLOUDS BELOW 12,000 FEET
WITH NO SIGNIFICANT WEATHER AND/OR OBSTRUCTIONS TO VISIBILITY.

KYZ001>023-026-027-061>063-070>075-080700-
WESTERN AND SOUTH CENTRAL KENTUCKY

CITY           SKY/WX    TMP DP  RH WIND       PRES   REMARKS
PADUCAH        CLOUDY    37  19  48 N7        30.30S WCI  32
HENDERSON      CLOUDY    34  21  60 NW8       30.28F WCI  27
OWENSBORO      CLOUDY    34  23  64 NW10      30.28S WCI  26
HOPKINSVILLE   CLOUDY    36  23  58 NW5       30.26R WCI  32
BOWLING GREEN  CLOUDY    37  23  56 VRB7      30.24S WCI  32
GLASGOW        CLOUDY    35  23  62 NW3       30.22S
$$

KYZ024-025-028>034-038-045-046-053-080700-
NORTH CENTRAL KENTUCKY

CITY           SKY/WX    TMP DP  RH WIND       PRES   REMARKS
LOUISVILLE/SDF CLOUDY    35  20  54 NW10      30.22R WCI  27
LOUISVILLE/LOU CLOUDY    36  22  56 NW7       30.22S WCI  30
FORT KNOX      CLOUDY    33  23  67 NW6       30.20F WCI  28
$$

KYZ035>037-039>044-047>052-055>060-089>105-080700-
NORTHEAST KENTUCKY

CITY           SKY/WX    TMP DP  RH WIND       PRES   REMARKS
LEXINGTON      CLOUDY    34  23  64 NW6       30.17S WCI  29
COVINGTON      MOCLDY    31  21  66 W16       30.17R WCI  20
FRANKFORT      CLOUDY    34  22  61 W6        30.18R WCI  29
$$

KYZ054-064>069-076>088-106>120-080700-
SOUTHEAST KENTUCKY

CITY           SKY/WX    TMP DP  RH WIND       PRES   REMARKS
JACKSON        CLOUDY    34  23  64 NW5       30.13F WCI  30
LONDON         CLOUDY    34  28  79 CALM      30.15F
SOMERSET       CLOUDY    34  27  75 W3        30.19F
MIDDLESBORO    CLOUDY    39  27  61 NE5       30.15R
MONTICELLO     PTCLDY    36  25  64 N8G17     30.20S WCI  30
$$




USA.gov is the U.S. government's official web portal to all federal, state and local government web resources and services.